Time,TemperatureF,DewpointF,PressureIn,WindDirection,WindDirectionDegrees,WindSpeedMPH,WindSpeedGustMPH,Humidity,HourlyPrecipIn,Conditions,Clouds,dailyrainin,SoftwareType,DateUTC
2013-06-03 00:00:00,53.1,44.7,30.08,North,359,0.0,0.0,73,0.00,,,0.00,Wunderground v.1.15,2013-06-03 05:00:00,
2013-06-03 00:05:00,52.8,44.7,30.08,North,359,0.0,0.0,74,0.00,,,0.00,Wunderground v.1.15,2013-06-03 05:05:00,
2013-06-03 00:10:00,52.5,44.8,30.08,North,359,0.0,0.0,75,0.00,,,0.00,Wunderground v.1.15,2013-06-03 05:10:00,
2013-06-03 00:20:00,52.2,44.5,30.08,North,359,0.0,0.0,75,0.00,,,0.00,Wunderground v.1.15,2013-06-03 05:20:00,
2013-06-03 00:25:00,52.0,44.7,30.08,North,359,0.0,0.0,76,0.00,,,0.00,Wunderground v.1.15,2013-06-03 05:25:00,
2013-06-03 00:30:00,51.7,44.4,30.08,North,359,0.0,0.0,76,0.00,,,0.00,Wunderground v.1.15,2013-06-03 05:30:00,
2013-06-03 00:35:00,51.4,44.1,30.08,North,359,0.0,0.0,76,0.00,,,0.00,Wunderground v.1.15,2013-06-03 05:35:00,
2013-06-03 00:45:00,50.9,43.9,30.08,North,359,0.0,0.0,77,0.00,,,0.00,Wunderground v.1.15,2013-06-03 05:45:00,
2013-06-03 00:50:00,50.7,44.1,30.08,North,359,0.0,0.0,78,0.00,,,0.00,Wunderground v.1.15,2013-06-03 05:50:00,
2013-06-03 00:55:00,50.5,44.2,30.08,North,359,0.0,0.0,79,0.00,,,0.00,Wunderground v.1.15,2013-06-03 05:55:00,
2013-06-03 01:05:00,50.1,44.2,30.08,North,359,0.0,0.0,80,0.00,,,0.00,Wunderground v.1.15,2013-06-03 06:05:00,
2013-06-03 01:15:00,49.7,43.8,30.08,North,359,0.0,0.0,80,0.00,,,0.00,Wunderground v.1.15,2013-06-03 06:15:00,
2013-06-03 01:20:00,49.5,43.9,30.08,North,359,0.0,0.0,81,0.00,,,0.00,Wunderground v.1.15,2013-06-03 06:20:00,
2013-06-03 01:25:00,49.3,44.0,30.08,North,359,0.0,0.0,82,0.00,,,0.00,Wunderground v.1.15,2013-06-03 06:25:00,
2013-06-03 01:30:00,49.3,44.0,30.08,North,359,0.0,0.0,82,0.00,,,0.00,Wunderground v.1.15,2013-06-03 06:30:00,
2013-06-03 01:40:00,49.1,43.8,30.08,North,359,0.0,0.0,82,0.00,,,0.00,Wunderground v.1.15,2013-06-03 06:40:00,
2013-06-03 01:45:00,49.1,43.8,30.08,North,359,0.0,0.0,82,0.00,,,0.00,Wunderground v.1.15,2013-06-03 06:45:00,
2013-06-03 01:50:00,49.1,43.8,30.08,North,359,0.0,0.0,82,0.00,,,0.00,Wunderground v.1.15,2013-06-03 06:50:00,
2013-06-03 02:00:00,49.3,43.4,30.08,North,359,0.0,0.0,80,0.00,,,0.00,Wunderground v.1.15,2013-06-03 07:00:00,
2013-06-03 02:05:00,49.3,43.7,30.08,North,359,0.0,0.0,81,0.00,,,0.00,Wunderground v.1.15,2013-06-03 07:05:00,
2013-06-03 02:15:00,49.1,43.8,30.08,North,359,0.0,0.0,82,0.00,,,0.00,Wunderground v.1.15,2013-06-03 07:15:00,
2013-06-03 02:20:00,49.0,43.7,30.08,North,359,0.0,0.0,82,0.00,,,0.00,Wunderground v.1.15,2013-06-03 07:20:00,
2013-06-03 02:25:00,48.9,43.6,30.08,North,359,0.0,0.0,82,0.00,,,0.00,Wunderground v.1.15,2013-06-03 07:25:00,
2013-06-03 02:35:00,48.6,43.4,30.08,North,359,0.0,0.0,82,0.00,,,0.00,Wunderground v.1.15,2013-06-03 07:35:00,
2013-06-03 02:40:00,48.4,43.5,30.08,North,359,0.0,0.0,83,0.00,,,0.00,Wunderground v.1.15,2013-06-03 07:40:00,
2013-06-03 02:45:00,48.3,43.1,30.08,North,359,0.0,0.0,82,0.00,,,0.00,Wunderground v.1.15,2013-06-03 07:45:00,
2013-06-03 02:50:00,48.3,43.1,30.07,North,359,0.0,0.0,82,0.00,,,0.00,Wunderground v.1.15,2013-06-03 07:50:00,
2013-06-03 03:00:00,48.3,43.1,30.08,North,359,0.0,0.0,82,0.00,,,0.00,Wunderground v.1.15,2013-06-03 08:00:00,
2013-06-03 03:05:00,48.3,43.4,30.07,North,359,0.0,0.0,83,0.00,,,0.00,Wunderground v.1.15,2013-06-03 08:05:00,
2013-06-03 03:15:00,48.1,43.2,30.07,North,359,0.0,0.0,83,0.00,,,0.00,Wunderground v.1.15,2013-06-03 08:15:00,
2013-06-03 03:20:00,47.9,43.0,30.07,North,359,0.0,0.0,83,0.00,,,0.00,Wunderground v.1.15,2013-06-03 08:20:00,
2013-06-03 03:25:00,47.8,43.2,30.07,North,359,0.0,0.0,84,0.00,,,0.00,Wunderground v.1.15,2013-06-03 08:25:00,
2013-06-03 03:35:00,47.7,43.4,30.07,North,359,0.0,0.0,85,0.00,,,0.00,Wunderground v.1.15,2013-06-03 08:35:00,
2013-06-03 03:40:00,47.7,44.0,30.07,North,359,0.0,0.0,87,0.00,,,0.00,Wunderground v.1.15,2013-06-03 08:40:00,
2013-06-03 03:45:00,47.7,44.3,30.07,North,359,0.0,0.0,88,0.00,,,0.00,Wunderground v.1.15,2013-06-03 08:45:00,
2013-06-03 03:55:00,47.5,44.1,30.07,North,359,0.0,0.0,88,0.00,,,0.00,Wunderground v.1.15,2013-06-03 08:55:00,
2013-06-03 04:00:00,47.5,44.4,30.07,North,359,0.0,0.0,89,0.00,,,0.00,Wunderground v.1.15,2013-06-03 09:00:00,
2013-06-03 04:05:00,47.3,43.9,30.07,North,359,0.0,0.0,88,0.00,,,0.00,Wunderground v.1.15,2013-06-03 09:05:00,
2013-06-03 04:15:00,47.1,44.3,30.07,North,359,0.0,0.0,90,0.00,,,0.00,Wunderground v.1.15,2013-06-03 09:15:00,
2013-06-03 04:20:00,47.0,44.2,30.07,North,359,0.0,0.0,90,0.00,,,0.00,Wunderground v.1.15,2013-06-03 09:20:00,
2013-06-03 04:30:00,46.9,44.1,30.07,North,359,0.0,0.0,90,0.00,,,0.00,Wunderground v.1.15,2013-06-03 09:30:00,
2013-06-03 04:35:00,46.8,44.3,30.07,North,359,0.0,0.0,91,0.00,,,0.00,Wunderground v.1.15,2013-06-03 09:35:00,
2013-06-03 04:40:00,46.8,44.3,30.07,North,359,0.0,0.0,91,0.00,,,0.00,Wunderground v.1.15,2013-06-03 09:40:00,
2013-06-03 04:45:00,46.7,44.2,30.07,North,359,0.0,0.0,91,0.00,,,0.00,Wunderground v.1.15,2013-06-03 09:45:00,
2013-06-03 04:55:00,46.4,43.9,30.07,North,359,0.0,0.0,91,0.00,,,0.00,Wunderground v.1.15,2013-06-03 09:55:00,
2013-06-03 05:00:00,46.2,43.7,30.08,North,359,0.0,0.0,91,0.00,,,0.00,Wunderground v.1.15,2013-06-03 10:00:00,
2013-06-03 05:05:00,45.8,43.0,30.08,North,359,0.0,0.0,90,0.00,,,0.00,Wunderground v.1.15,2013-06-03 10:05:00,
2013-06-03 05:15:00,45.4,42.6,30.08,North,359,0.0,0.0,90,0.00,,,0.00,Wunderground v.1.15,2013-06-03 10:15:00,
2013-06-03 05:25:00,45.2,42.2,30.08,North,359,0.0,0.0,89,0.00,,,0.00,Wunderground v.1.15,2013-06-03 10:25:00,
2013-06-03 05:30:00,45.1,42.1,30.08,North,359,0.0,0.0,89,0.00,,,0.00,Wunderground v.1.15,2013-06-03 10:30:00,
2013-06-03 05:35:00,45.0,42.0,30.08,North,359,0.0,0.0,89,0.00,,,0.00,Wunderground v.1.15,2013-06-03 10:35:00,
2013-06-03 05:45:00,45.2,42.4,30.08,North,359,0.0,0.0,90,0.00,,,0.00,Wunderground v.1.15,2013-06-03 10:45:00,
2013-06-03 05:50:00,45.3,42.2,30.08,North,359,0.0,0.0,89,0.00,,,0.00,Wunderground v.1.15,2013-06-03 10:50:00,
2013-06-03 06:00:00,45.2,42.2,30.08,North,359,0.0,0.0,89,0.00,,,0.00,Wunderground v.1.15,2013-06-03 11:00:00,
2013-06-03 06:05:00,45.4,42.3,30.08,North,359,0.0,0.0,89,0.00,,,0.00,Wunderground v.1.15,2013-06-03 11:05:00,
2013-06-03 06:15:00,45.6,42.3,30.08,North,359,0.0,0.0,88,0.00,,,0.00,Wunderground v.1.15,2013-06-03 11:15:00,
2013-06-03 06:20:00,45.8,42.4,30.08,North,359,0.0,0.0,88,0.00,,,0.00,Wunderground v.1.15,2013-06-03 11:20:00,
2013-06-03 06:30:00,46.6,43.2,30.09,North,359,0.0,0.0,88,0.00,,,0.00,Wunderground v.1.15,2013-06-03 11:30:00,
2013-06-03 06:40:00,47.8,43.8,30.09,North,359,0.0,0.0,86,0.00,,,0.00,Wunderground v.1.15,2013-06-03 11:40:00,
2013-06-03 06:50:00,49.2,44.9,30.09,North,359,0.0,1.0,85,0.00,,,0.00,Wunderground v.1.15,2013-06-03 11:50:00,
2013-06-03 07:00:00,50.6,45.9,30.09,North,359,0.0,0.0,84,0.00,,,0.00,Wunderground v.1.15,2013-06-03 12:00:00,
2013-06-03 07:05:00,51.2,45.6,30.09,North,359,1.0,1.0,81,0.00,,,0.00,Wunderground v.1.15,2013-06-03 12:05:00,
2013-06-03 07:15:00,53.0,46.7,30.09,North,359,0.0,1.0,79,0.00,,,0.00,Wunderground v.1.15,2013-06-03 12:15:00,
2013-06-03 07:20:00,53.7,46.7,30.09,North,359,0.0,0.0,77,0.00,,,0.00,Wunderground v.1.15,2013-06-03 12:20:00,
2013-06-03 07:30:00,55.4,47.2,30.09,North,359,0.0,0.0,74,0.00,,,0.00,Wunderground v.1.15,2013-06-03 12:30:00,
2013-06-03 07:40:00,57.2,47.1,30.09,North,10,0.0,0.0,69,0.00,,,0.00,Wunderground v.1.15,2013-06-03 12:40:00,
2013-06-03 07:50:00,57.7,45.6,30.09,SSW,211,0.0,0.0,64,0.00,,,0.00,Wunderground v.1.15,2013-06-03 12:50:00,
2013-06-03 08:00:00,57.8,46.5,30.10,SSW,203,1.0,1.0,66,0.00,,,0.00,Wunderground v.1.15,2013-06-03 13:00:00,
2013-06-03 08:05:00,58.2,46.1,30.10,SSW,199,1.0,2.0,64,0.00,,,0.00,Wunderground v.1.15,2013-06-03 13:05:00,
2013-06-03 08:15:00,58.4,45.4,30.10,SSW,197,1.0,1.0,62,0.00,,,0.00,Wunderground v.1.15,2013-06-03 13:15:00,
2013-06-03 08:25:00,59.6,46.6,30.09,South,177,1.0,1.0,62,0.00,,,0.00,Wunderground v.1.15,2013-06-03 13:25:00,
2013-06-03 08:35:00,60.3,46.4,30.09,ESE,121,1.0,1.0,60,0.00,,,0.00,Wunderground v.1.15,2013-06-03 13:35:00,
2013-06-03 08:45:00,61.0,46.1,30.09,South,185,1.0,4.0,58,0.00,,,0.00,Wunderground v.1.15,2013-06-03 13:45:00,
2013-06-03 08:55:00,60.5,46.1,30.10,South,174,3.0,3.0,59,0.00,,,0.00,Wunderground v.1.15,2013-06-03 13:55:00,
2013-06-03 09:05:00,61.7,47.2,30.10,South,184,1.0,1.0,59,0.00,,,0.00,Wunderground v.1.15,2013-06-03 14:05:00,
2013-06-03 09:15:00,62.8,46.4,30.09,SSW,199,2.0,5.0,55,0.00,,,0.00,Wunderground v.1.15,2013-06-03 14:15:00,
2013-06-03 09:25:00,63.0,47.5,30.10,South,177,2.0,4.0,57,0.00,,,0.00,Wunderground v.1.15,2013-06-03 14:25:00,
2013-06-03 09:35:00,63.2,46.8,30.10,SSW,212,3.0,6.0,55,0.00,,,0.00,Wunderground v.1.15,2013-06-03 14:35:00,
2013-06-03 09:40:00,63.3,46.4,30.10,SSW,200,3.0,4.0,54,0.00,,,0.00,Wunderground v.1.15,2013-06-03 14:40:00,
2013-06-03 09:45:00,63.5,47.0,30.09,South,191,5.0,5.0,55,0.00,,,0.00,Wunderground v.1.15,2013-06-03 14:45:00,
2013-06-03 09:55:00,65.0,46.9,30.09,SSW,194,2.0,6.0,52,0.00,,,0.00,Wunderground v.1.15,2013-06-03 14:55:00,
2013-06-03 10:05:00,65.4,45.7,30.09,South,191,3.0,9.0,49,0.00,,,0.00,Wunderground v.1.15,2013-06-03 15:05:00,
2013-06-03 10:15:00,66.1,44.7,30.08,SE,143,3.0,4.0,46,0.00,,,0.00,Wunderground v.1.15,2013-06-03 15:15:00,
2013-06-03 10:20:00,65.9,45.6,30.08,South,186,3.0,3.0,48,0.00,,,0.00,Wunderground v.1.15,2013-06-03 15:20:00,
2013-06-03 10:30:00,66.9,46.0,30.08,SE,139,3.0,3.0,47,0.00,,,0.00,Wunderground v.1.15,2013-06-03 15:30:00,
2013-06-03 10:35:00,67.0,44.4,30.08,South,185,2.0,7.0,44,0.00,,,0.00,Wunderground v.1.15,2013-06-03 15:35:00,
2013-06-03 10:45:00,67.0,45.5,30.08,South,188,3.0,4.0,46,0.00,,,0.00,Wunderground v.1.15,2013-06-03 15:45:00,
2013-06-03 10:50:00,66.6,44.0,30.08,SW,214,4.0,4.0,44,0.00,,,0.00,Wunderground v.1.15,2013-06-03 15:50:00,
2013-06-03 11:00:00,66.4,44.4,30.08,SSW,201,3.0,4.0,45,0.00,,,0.00,Wunderground v.1.15,2013-06-03 16:00:00,
2013-06-03 11:05:00,66.5,44.5,30.08,South,170,4.0,6.0,45,0.00,,,0.00,Wunderground v.1.15,2013-06-03 16:05:00,
2013-06-03 11:15:00,66.3,46.0,30.08,South,175,3.0,4.0,48,0.00,,,0.00,Wunderground v.1.15,2013-06-03 16:15:00,
2013-06-03 11:20:00,66.5,45.6,30.08,South,183,2.0,2.0,47,0.00,,,0.00,Wunderground v.1.15,2013-06-03 16:20:00,
2013-06-03 11:30:00,66.5,43.3,30.08,SE,140,2.0,2.0,43,0.00,,,0.00,Wunderground v.1.15,2013-06-03 16:30:00,
2013-06-03 11:40:00,66.2,45.4,30.08,SE,143,1.0,1.0,47,0.00,,,0.00,Wunderground v.1.15,2013-06-03 16:40:00,
2013-06-03 11:45:00,66.7,45.8,30.08,SE,142,1.0,1.0,47,0.00,,,0.00,Wunderground v.1.15,2013-06-03 16:45:00,
2013-06-03 11:55:00,67.3,45.2,30.08,South,187,2.0,3.0,45,0.00,,,0.00,Wunderground v.1.15,2013-06-03 16:55:00,
2013-06-03 12:05:00,67.4,45.3,30.07,ESE,106,2.0,3.0,45,0.00,,,0.00,Wunderground v.1.15,2013-06-03 17:05:00,
2013-06-03 12:15:00,66.9,43.7,30.07,ESE,102,1.0,2.0,43,0.00,,,0.00,Wunderground v.1.15,2013-06-03 17:15:00,
2013-06-03 12:25:00,66.8,44.8,30.07,SE,142,2.0,2.0,45,0.00,,,0.00,Wunderground v.1.15,2013-06-03 17:25:00,
2013-06-03 12:30:00,67.0,44.9,30.07,SE,131,0.0,0.0,45,0.00,,,0.00,Wunderground v.1.15,2013-06-03 17:30:00,
2013-06-03 12:40:00,66.7,44.7,30.07,SE,131,2.0,2.0,45,0.00,,,0.00,Wunderground v.1.15,2013-06-03 17:40:00,
2013-06-03 12:50:00,66.9,44.3,30.07,ESE,110,2.0,2.0,44,0.00,,,0.00,Wunderground v.1.15,2013-06-03 17:50:00,
2013-06-03 12:55:00,66.9,43.7,30.07,ESE,120,1.0,2.0,43,0.00,,,0.00,Wunderground v.1.15,2013-06-03 17:55:00,
2013-06-03 13:05:00,66.2,44.2,30.05,ENE,70,2.0,2.0,45,0.00,,,0.00,Wunderground v.1.15,2013-06-03 18:05:00,
2013-06-03 13:15:00,66.1,44.7,30.06,East,79,2.0,2.0,46,0.00,,,0.00,Wunderground v.1.15,2013-06-03 18:15:00,
2013-06-03 13:25:00,65.7,44.3,30.06,ENE,74,1.0,2.0,46,0.00,,,0.00,Wunderground v.1.15,2013-06-03 18:25:00,
2013-06-03 13:35:00,65.7,43.8,30.05,SE,126,2.0,5.0,45,0.00,,,0.00,Wunderground v.1.15,2013-06-03 18:35:00,
2013-06-03 13:40:00,65.6,43.7,30.05,ESE,108,4.0,4.0,45,0.00,,,0.00,Wunderground v.1.15,2013-06-03 18:40:00,
2013-06-03 13:50:00,65.6,44.3,30.05,ENE,76,2.0,3.0,46,0.00,,,0.00,Wunderground v.1.15,2013-06-03 18:50:00,
2013-06-03 13:55:00,65.6,44.8,30.05,East,85,2.0,3.0,47,0.00,,,0.00,Wunderground v.1.15,2013-06-03 18:55:00,
2013-06-03 14:05:00,65.9,45.1,30.05,ESE,107,2.0,8.0,47,0.00,,,0.00,Wunderground v.1.15,2013-06-03 19:05:00,
2013-06-03 14:15:00,66.0,45.7,30.05,East,88,3.0,5.0,48,0.00,,,0.00,Wunderground v.1.15,2013-06-03 19:15:00,
2013-06-03 14:25:00,65.6,45.4,30.05,East,87,4.0,6.0,48,0.00,,,0.00,Wunderground v.1.15,2013-06-03 19:25:00,
2013-06-03 14:30:00,65.6,45.4,30.04,ENE,62,4.0,7.0,48,0.00,,,0.00,Wunderground v.1.15,2013-06-03 19:30:00,
2013-06-03 14:40:00,65.5,44.7,30.03,ESE,102,5.0,5.0,47,0.00,,,0.00,Wunderground v.1.15,2013-06-03 19:40:00,
2013-06-03 14:50:00,66.5,45.6,30.03,East,85,5.0,5.0,47,0.00,,,0.00,Wunderground v.1.15,2013-06-03 19:50:00,
2013-06-03 14:55:00,66.4,45.0,30.02,ESE,108,5.0,5.0,46,0.00,,,0.00,Wunderground v.1.15,2013-06-03 19:55:00,
2013-06-03 15:05:00,65.9,43.9,30.02,East,83,5.0,5.0,45,0.00,,,0.00,Wunderground v.1.15,2013-06-03 20:05:00,
2013-06-03 15:15:00,65.8,43.9,30.02,ESE,111,4.0,5.0,45,0.00,,,0.00,Wunderground v.1.15,2013-06-03 20:15:00,
2013-06-03 15:25:00,65.8,43.9,30.03,ESE,123,4.0,4.0,45,0.00,,,0.00,Wunderground v.1.15,2013-06-03 20:25:00,
2013-06-03 15:30:00,65.8,43.9,30.04,ESE,112,3.0,3.0,45,0.00,,,0.00,Wunderground v.1.15,2013-06-03 20:30:00,
2013-06-03 15:40:00,66.1,45.3,30.04,ESE,112,3.0,4.0,47,0.00,,,0.00,Wunderground v.1.15,2013-06-03 20:40:00,
2013-06-03 15:50:00,66.9,46.0,30.03,ESE,120,3.0,3.0,47,0.00,,,0.00,Wunderground v.1.15,2013-06-03 20:50:00,
2013-06-03 15:55:00,67.2,46.8,30.02,ESE,108,4.0,4.0,48,0.00,,,0.00,Wunderground v.1.15,2013-06-03 20:55:00,
2013-06-03 16:05:00,68.0,44.7,30.02,NE,51,3.0,6.0,43,0.00,,,0.00,Wunderground v.1.15,2013-06-03 21:05:00,
2013-06-03 16:15:00,67.9,44.6,30.01,ENE,70,5.0,9.0,43,0.00,,,0.00,Wunderground v.1.15,2013-06-03 21:15:00,
2013-06-03 16:25:00,67.3,44.6,30.00,ESE,106,6.0,8.0,44,0.00,,,0.00,Wunderground v.1.15,2013-06-03 21:25:00,
2013-06-03 16:30:00,67.3,44.6,30.00,East,97,6.0,6.0,44,0.00,,,0.00,Wunderground v.1.15,2013-06-03 21:30:00,
2013-06-03 16:40:00,67.1,45.0,30.00,East,97,5.0,5.0,45,0.00,,,0.00,Wunderground v.1.15,2013-06-03 21:40:00,
2013-06-03 16:50:00,66.7,44.7,29.99,ESE,112,6.0,9.0,45,0.00,,,0.00,Wunderground v.1.15,2013-06-03 21:50:00,
2013-06-03 17:00:00,66.9,44.3,29.99,East,97,6.0,6.0,44,0.00,,,0.00,Wunderground v.1.15,2013-06-03 22:00:00,
2013-06-03 17:05:00,66.6,44.0,29.98,ESE,116,6.0,7.0,44,0.00,,,0.00,Wunderground v.1.15,2013-06-03 22:05:00,
2013-06-03 17:15:00,66.1,43.5,29.95,East,98,7.0,7.0,44,0.00,,,0.00,Wunderground v.1.15,2013-06-03 22:15:00,
2013-06-03 17:25:00,65.9,43.4,29.95,ESE,116,7.0,8.0,44,0.00,,,0.00,Wunderground v.1.15,2013-06-03 22:25:00,
2013-06-03 17:35:00,66.0,44.0,29.98,SSW,201,6.0,10.0,45,0.00,,,0.00,Wunderground v.1.15,2013-06-03 22:35:00,
2013-06-03 17:45:00,66.7,45.3,29.99,ENE,66,4.0,5.0,46,0.00,,,0.00,Wunderground v.1.15,2013-06-03 22:45:00,
2013-06-03 17:50:00,67.0,45.5,29.98,East,98,5.0,6.0,46,0.00,,,0.00,Wunderground v.1.15,2013-06-03 22:50:00,
2013-06-03 18:00:00,66.9,45.4,29.99,ESE,122,5.0,5.0,46,0.00,,,0.00,Wunderground v.1.15,2013-06-03 23:00:00,
2013-06-03 18:05:00,66.9,45.4,29.98,East,101,4.0,5.0,46,0.00,,,0.00,Wunderground v.1.15,2013-06-03 23:05:00,
2013-06-03 18:15:00,67.1,45.6,29.99,ESE,108,5.0,7.0,46,0.00,,,0.00,Wunderground v.1.15,2013-06-03 23:15:00,
2013-06-03 18:20:00,67.1,45.6,29.98,East,95,6.0,6.0,46,0.00,,,0.00,Wunderground v.1.15,2013-06-03 23:20:00,
2013-06-03 18:30:00,66.4,45.5,29.99,East,100,5.0,5.0,47,0.00,,,0.00,Wunderground v.1.15,2013-06-03 23:30:00,
2013-06-03 18:35:00,66.4,45.5,29.99,East,99,4.0,5.0,47,0.00,,,0.00,Wunderground v.1.15,2013-06-03 23:35:00,
2013-06-03 18:45:00,66.4,46.1,29.99,East,79,6.0,8.0,48,0.00,,,0.00,Wunderground v.1.15,2013-06-03 23:45:00,
2013-06-03 18:50:00,66.3,45.5,29.99,East,95,6.0,10.0,47,0.00,,,0.00,Wunderground v.1.15,2013-06-03 23:50:00,
2013-06-03 19:00:00,66.2,45.9,30.00,SE,130,5.0,5.0,48,0.00,,,0.00,Wunderground v.1.15,2013-06-04 00:00:00,
2013-06-03 19:05:00,66.2,45.9,30.00,ESE,110,4.0,5.0,48,0.00,,,0.00,Wunderground v.1.15,2013-06-04 00:05:00,
2013-06-03 19:15:00,66.3,46.0,30.00,SE,131,6.0,6.0,48,0.00,,,0.00,Wunderground v.1.15,2013-06-04 00:15:00,
2013-06-03 19:20:00,66.3,46.0,30.00,East,97,5.0,5.0,48,0.00,,,0.00,Wunderground v.1.15,2013-06-04 00:20:00,
2013-06-03 19:30:00,66.0,46.3,30.00,East,97,5.0,5.0,49,0.00,,,0.00,Wunderground v.1.15,2013-06-04 00:30:00,
2013-06-03 19:35:00,65.9,46.2,30.00,East,86,4.0,5.0,49,0.00,,,0.00,Wunderground v.1.15,2013-06-04 00:35:00,
2013-06-03 19:45:00,65.9,45.6,30.01,SE,137,5.0,7.0,48,0.00,,,0.00,Wunderground v.1.15,2013-06-04 00:45:00,
2013-06-03 19:55:00,65.8,45.6,30.01,ESE,114,5.0,7.0,48,0.00,,,0.00,Wunderground v.1.15,2013-06-04 00:55:00,
2013-06-03 20:00:00,65.7,45.5,30.01,ESE,108,5.0,5.0,48,0.00,,,0.00,Wunderground v.1.15,2013-06-04 01:00:00,
2013-06-03 20:05:00,65.6,45.4,30.01,ESE,120,4.0,5.0,48,0.00,,,0.00,Wunderground v.1.15,2013-06-04 01:05:00,
2013-06-03 20:15:00,65.4,45.2,30.01,ESE,103,5.0,5.0,48,0.00,,,0.00,Wunderground v.1.15,2013-06-04 01:15:00,
2013-06-03 20:25:00,65.2,46.1,30.01,ESE,116,4.0,6.0,50,0.00,,,0.00,Wunderground v.1.15,2013-06-04 01:25:00,
2013-06-03 20:30:00,65.0,45.9,30.02,ENE,70,3.0,5.0,50,0.00,,,0.00,Wunderground v.1.15,2013-06-04 01:30:00,
2013-06-03 20:40:00,64.7,46.7,30.02,ESE,120,4.0,5.0,52,0.00,,,0.00,Wunderground v.1.15,2013-06-04 01:40:00,
2013-06-03 20:50:00,64.5,46.5,30.02,East,91,4.0,8.0,52,0.00,,,0.00,Wunderground v.1.15,2013-06-04 01:50:00,
2013-06-03 20:55:00,64.4,46.4,30.02,ENE,71,5.0,8.0,52,0.00,,,0.00,Wunderground v.1.15,2013-06-04 01:55:00,
2013-06-03 21:05:00,64.1,45.6,30.02,ENE,73,5.0,8.0,51,0.00,,,0.00,Wunderground v.1.15,2013-06-04 02:05:00,
2013-06-03 21:15:00,64.0,46.0,30.02,East,91,5.0,5.0,52,0.00,,,0.00,Wunderground v.1.15,2013-06-04 02:15:00,
2013-06-03 21:25:00,63.8,45.8,30.02,East,91,5.0,8.0,52,0.00,,,0.00,Wunderground v.1.15,2013-06-04 02:25:00,
2013-06-03 21:30:00,63.7,46.2,30.02,ENE,74,5.0,5.0,53,0.00,,,0.00,Wunderground v.1.15,2013-06-04 02:30:00,
2013-06-03 21:40:00,63.5,46.6,30.03,ENE,65,5.0,5.0,54,0.00,,,0.00,Wunderground v.1.15,2013-06-04 02:40:00,
2013-06-03 21:50:00,63.4,46.9,30.04,ESE,106,5.0,5.0,55,0.00,,,0.00,Wunderground v.1.15,2013-06-04 02:50:00,
2013-06-03 21:55:00,63.3,46.9,30.04,East,83,4.0,5.0,55,0.00,,,0.00,Wunderground v.1.15,2013-06-04 02:55:00,
2013-06-03 22:05:00,63.3,46.9,30.05,SE,145,4.0,4.0,55,0.00,,,0.00,Wunderground v.1.15,2013-06-04 03:05:00,
2013-06-03 22:15:00,63.2,46.8,30.05,ENE,73,3.0,5.0,55,0.00,,,0.00,Wunderground v.1.15,2013-06-04 03:15:00,
2013-06-03 22:20:00,63.2,46.8,30.05,ESE,118,4.0,4.0,55,0.00,,,0.00,Wunderground v.1.15,2013-06-04 03:20:00,
2013-06-03 22:30:00,63.2,46.8,30.06,East,91,4.0,4.0,55,0.00,,,0.00,Wunderground v.1.15,2013-06-04 03:30:00,
2013-06-03 22:40:00,63.1,46.7,30.06,East,96,4.0,4.0,55,0.00,,,0.00,Wunderground v.1.15,2013-06-04 03:40:00,
2013-06-03 22:45:00,63.0,47.1,30.06,ESE,116,4.0,4.0,56,0.00,,,0.00,Wunderground v.1.15,2013-06-04 03:45:00,
2013-06-03 22:55:00,62.8,46.9,30.06,East,82,4.0,5.0,56,0.00,,,0.00,Wunderground v.1.15,2013-06-04 03:55:00,
2013-06-03 23:05:00,62.7,47.2,30.06,East,84,4.0,5.0,57,0.00,,,0.00,Wunderground v.1.15,2013-06-04 04:05:00,
2013-06-03 23:10:00,62.6,47.1,30.05,East,83,4.0,4.0,57,0.00,,,0.00,Wunderground v.1.15,2013-06-04 04:10:00,
2013-06-03 23:15:00,62.5,47.1,30.05,East,79,4.0,5.0,57,0.00,,,0.00,Wunderground v.1.15,2013-06-04 04:15:00,
2013-06-03 23:25:00,62.5,47.1,30.04,ESE,104,5.0,5.0,57,0.00,,,0.00,Wunderground v.1.15,2013-06-04 04:25:00,
2013-06-03 23:30:00,62.4,47.0,30.04,East,87,5.0,5.0,57,0.00,,,0.00,Wunderground v.1.15,2013-06-04 04:30:00,
2013-06-03 23:40:00,62.3,47.3,30.03,ENE,75,5.0,5.0,58,0.00,,,0.00,Wunderground v.1.15,2013-06-04 04:40:00,
2013-06-03 23:50:00,62.2,47.2,30.03,East,98,5.0,5.0,58,0.00,,,0.00,Wunderground v.1.15,2013-06-04 04:50:00,
2013-06-03 23:55:00,62.2,47.2,30.04,East,90,4.0,5.0,58,0.00,,,0.00,Wunderground v.1.15,2013-06-04 04:55:00,